Weather History for Statesboro, GA

Change the Weather History Date:

Sunday, March 3, 2013

  Actual Average (KSAV) Record (KSAV)
Temperature  
Mean Temperature 38 °F 56 °F  
Max Temperature 44 °F 68 °F 85 °F (1951)
Min Temperature 32 °F 45 °F 20 °F (1980)
Degree Days  
Heating Degree Days 27 9  
Month to date heating degree days 28  
Since 1 July heating degree days 1545  
Cooling Degree Days 0 1  
Month to date cooling degree days 3  
Year to date cooling degree days 13  
Moisture  
Dew Point 26 °F    
Average Humidity 63    
Maximum Humidity 87    
Minimum Humidity 43    
Precipitation  
Precipitation 0.00 in 0.12 in 2.70 in (1948)
Month to date precipitation 0.35  
Year to date precipitation 6.83  
Sea Level Pressure  
Sea Level Pressure 30.01 in    
Wind  
Wind Speed 9 mph (WNW)    
Max Wind Speed 15 mph    
Max Gust Speed 22 mph    
Visibility 10 miles    
Events      
T = Trace of Precipitation, MM = Missing Value Source: NWS Daily Summary

Daily Weather History Graph

Daily Weather History Graph

Search for Another Location

Airport:

Trip Planner

Search our weather history database for the weather conditions in past years. The results will help you decide how hot, cold, wet, or windy it might be!

Date:

Astronomy

Mar. 03, 2013 Rise Set
Actual Time 6:51 AM EST 6:26 PM EST
Civil Twilight 6:27 AM EST 6:50 PM EST
Nautical Twilight 5:58 AM EST 7:19 PM EST
Astronomical Twilight 5:30 AM EST 7:47 PM EST
Moon No Moon Rise 10:28 AM EST (3/3)
Length of Visible Light 12h 23m
Length of Day
11h 34m
Waning Gibbous, 64% of the Moon is Illuminated
Mar 3
Waning Gibbous
Mar 4
Last Quarter
Mar 11
New
Mar 19
First Quarter
Mar 27
Full

Hourly Weather History & Observations

Time (EST) Temp. Windchill Dew Point Humidity Pressure Visibility Wind Dir Wind Speed Gust Speed Precip Events Conditions
12:15 AM 37.4 °F 31.4 °F 28.4 °F 70% 29.99 in 10.0 mi WNW 8.1 mph - N/A   Clear
12:35 AM 37.4 °F 31.4 °F 28.4 °F 70% 29.98 in 10.0 mi WNW 8.1 mph - N/A   Clear
12:55 AM 35.6 °F 28.6 °F 28.4 °F 75% 29.98 in 10.0 mi WNW 9.2 mph - N/A   Clear
1:15 AM 37.4 °F 30.3 °F 28.4 °F 70% 29.98 in 10.0 mi WNW 10.4 mph 16.1 mph N/A   Clear
1:35 AM 35.6 °F 28.6 °F 28.4 °F 75% 29.98 in 10.0 mi WNW 9.2 mph - N/A   Clear
1:55 AM 35.6 °F 29.2 °F 28.4 °F 75% 29.97 in 10.0 mi WNW 8.1 mph - N/A   Clear
2:15 AM 35.6 °F 29.2 °F 28.4 °F 75% 29.97 in 10.0 mi WNW 8.1 mph - N/A   Clear
2:55 AM 35.6 °F 29.9 °F 28.4 °F 75% 29.96 in 10.0 mi WNW 6.9 mph - N/A   Clear
3:15 AM 33.8 °F 27.7 °F 28.4 °F 81% 29.96 in 10.0 mi WNW 6.9 mph - N/A   Clear
3:35 AM 33.8 °F 27.7 °F 28.4 °F 81% 29.96 in 10.0 mi West 6.9 mph - N/A   Clear
3:55 AM 33.8 °F 28.6 °F 28.4 °F 81% 29.96 in 10.0 mi WNW 5.8 mph - N/A   Clear
4:15 AM 33.8 °F 28.6 °F 28.4 °F 81% 29.96 in 10.0 mi WNW 5.8 mph - N/A   Clear
4:35 AM 33.8 °F 28.6 °F 28.4 °F 81% 29.97 in 10.0 mi WNW 5.8 mph - N/A   Scattered Clouds
4:55 AM 32.0 °F 25.6 °F 28.4 °F 87% 29.97 in 10.0 mi WNW 6.9 mph - N/A   Scattered Clouds
5:15 AM 33.8 °F 27.7 °F 28.4 °F 81% 29.97 in 10.0 mi WNW 6.9 mph - N/A   Mostly Cloudy
5:35 AM 33.8 °F 27.0 °F 28.4 °F 81% 29.98 in 10.0 mi NW 8.1 mph - N/A   Overcast
5:55 AM 33.8 °F 25.8 °F 28.4 °F 81% 29.98 in 10.0 mi NW 10.4 mph - N/A   Overcast
6:15 AM 35.6 °F 27.5 °F 28.4 °F 75% 29.99 in 10.0 mi WNW 11.5 mph - N/A   Overcast
6:35 AM 35.6 °F 28.0 °F 28.4 °F 75% 29.99 in 10.0 mi NW 10.4 mph - N/A   Overcast
6:55 AM 35.6 °F 28.0 °F 28.4 °F 75% 29.99 in 10.0 mi NW 10.4 mph 17.3 mph N/A   Overcast
7:15 AM 35.6 °F 28.0 °F 26.6 °F 70% 29.99 in 10.0 mi NW 10.4 mph - N/A   Overcast
7:35 AM 35.6 °F 28.0 °F 26.6 °F 70% 30.00 in 10.0 mi NW 10.4 mph - N/A   Overcast
7:55 AM 35.6 °F 27.5 °F 26.6 °F 70% 30.00 in 10.0 mi NW 11.5 mph 16.1 mph N/A   Overcast
8:15 AM 37.4 °F 29.8 °F 26.6 °F 65% 30.01 in 10.0 mi NW 11.5 mph - N/A   Overcast
8:35 AM 37.4 °F 30.8 °F 26.6 °F 65% 30.01 in 10.0 mi NNW 9.2 mph - N/A   Overcast
8:55 AM 37.4 °F 29.3 °F 26.6 °F 65% 30.02 in 10.0 mi NW 12.7 mph 17.3 mph N/A   Overcast
9:15 AM 37.4 °F 30.8 °F 26.6 °F 65% 30.02 in 10.0 mi NW 9.2 mph 16.1 mph N/A   Overcast
9:35 AM 39.2 °F 32.0 °F 24.8 °F 56% 30.03 in 10.0 mi NW 11.5 mph 16.1 mph N/A   Overcast
9:55 AM 41.0 °F 34.3 °F 24.8 °F 53% 30.03 in 10.0 mi WNW 11.5 mph - N/A   Overcast
10:15 AM 41.0 °F 35.2 °F 26.6 °F 57% 30.02 in 10.0 mi NNW 9.2 mph 16.1 mph N/A   Overcast
10:55 AM 42.8 °F 38.6 °F 26.6 °F 53% 30.02 in 10.0 mi NNW 6.9 mph 16.1 mph N/A   Overcast
11:15 AM 42.8 °F 37.0 °F 26.6 °F 53% 30.02 in 10.0 mi WNW 10.4 mph - N/A   Overcast
11:35 AM 42.8 °F 37.5 °F 24.8 °F 49% 30.01 in 10.0 mi NNW 9.2 mph - N/A   Overcast
11:55 AM 42.8 °F 37.0 °F 24.8 °F 49% 30.01 in 10.0 mi NW 10.4 mph 18.4 mph N/A   Overcast
12:15 PM 44.6 °F 38.4 °F 24.8 °F 46% 30.01 in 10.0 mi NW 12.7 mph 17.3 mph N/A   Overcast
12:35 PM 44.6 °F 40.7 °F 24.8 °F 46% 30.00 in 10.0 mi WNW 6.9 mph - N/A   Overcast
12:55 PM 42.8 °F 37.0 °F 26.6 °F 53% 30.01 in 10.0 mi West 10.4 mph 17.3 mph N/A   Overcast
1:15 PM 42.8 °F 36.6 °F 26.6 °F 53% 30.00 in 10.0 mi West 11.5 mph - N/A   Overcast
1:35 PM 42.8 °F 37.0 °F 26.6 °F 53% 30.00 in 10.0 mi WNW 10.4 mph 18.4 mph N/A   Overcast
1:55 PM 42.8 °F 36.6 °F 24.8 °F 49% 29.99 in 10.0 mi WNW 11.5 mph 19.6 mph N/A   Overcast
2:15 PM 42.8 °F 36.6 °F 23.0 °F 46% 29.99 in 10.0 mi West 11.5 mph - N/A   Overcast
2:35 PM 42.8 °F 36.2 °F 24.8 °F 49% 29.99 in 10.0 mi WNW 12.7 mph 19.6 mph N/A   Overcast
2:55 PM 42.8 °F 36.6 °F 24.8 °F 49% 29.98 in 10.0 mi NW 11.5 mph 18.4 mph N/A   Overcast
3:15 PM 42.8 °F 37.0 °F 23.0 °F 46% 29.98 in 10.0 mi WNW 10.4 mph 18.4 mph N/A   Overcast
3:35 PM 42.8 °F 35.8 °F 23.0 °F 46% 29.98 in 10.0 mi West 13.8 mph 21.9 mph N/A   Overcast
3:55 PM 42.8 °F 36.2 °F 23.0 °F 46% 29.98 in 10.0 mi West 12.7 mph 19.6 mph N/A   Overcast
4:35 PM 44.6 °F 38.4 °F 23.0 °F 43% 29.98 in 10.0 mi WNW 12.7 mph 18.4 mph N/A   Scattered Clouds
4:55 PM 44.6 °F 37.8 °F 23.0 °F 43% 29.99 in 10.0 mi WNW 15.0 mph 19.6 mph N/A   Scattered Clouds
5:15 PM 44.6 °F 38.1 °F 23.0 °F 43% 29.99 in 10.0 mi West 13.8 mph - N/A   Scattered Clouds
5:35 PM 42.8 °F 36.2 °F 23.0 °F 46% 30.00 in 10.0 mi WNW 12.7 mph 17.3 mph N/A   Clear
5:55 PM 42.8 °F 36.6 °F 23.0 °F 46% 30.01 in 10.0 mi WNW 11.5 mph 18.4 mph N/A   Clear
6:15 PM 41.0 °F 35.8 °F 24.8 °F 53% 30.02 in 10.0 mi West 8.1 mph - N/A   Clear
6:35 PM 41.0 °F 36.4 °F 24.8 °F 53% 30.02 in 10.0 mi West 6.9 mph - N/A   Clear
6:55 PM 39.2 °F 33.0 °F 24.8 °F 56% 30.03 in 10.0 mi West 9.2 mph - N/A   Clear
7:15 PM 39.2 °F 34.2 °F 24.8 °F 56% 30.04 in 10.0 mi West 6.9 mph - N/A   Clear
7:35 PM 37.4 °F 32.1 °F 24.8 °F 60% 30.05 in 10.0 mi West 6.9 mph - N/A   Clear
7:55 PM 37.4 °F 33.8 °F 24.8 °F 60% 30.05 in 10.0 mi West 4.6 mph - N/A   Clear
8:15 PM 37.4 °F 33.8 °F 24.8 °F 60% 30.05 in 10.0 mi West 4.6 mph - N/A   Clear
8:35 PM 37.4 °F 33.8 °F 24.8 °F 60% 30.05 in 10.0 mi West 4.6 mph - N/A   Clear
8:55 PM 37.4 °F 33.8 °F 24.8 °F 60% 30.06 in 10.0 mi West 4.6 mph - N/A   Clear
9:15 PM 35.6 °F 31.7 °F 24.8 °F 65% 30.06 in 10.0 mi West 4.6 mph - N/A   Clear
9:35 PM 35.6 °F 30.7 °F 26.6 °F 70% 30.07 in 10.0 mi West 5.8 mph - N/A   Clear
9:55 PM 35.6 °F 31.7 °F 26.6 °F 70% 30.07 in 10.0 mi West 4.6 mph - N/A   Clear
10:15 PM 33.8 °F 30.8 °F 26.6 °F 75% 30.08 in 10.0 mi West 3.5 mph - N/A   Clear
10:35 PM 32.0 °F 27.5 °F 26.6 °F 80% 30.08 in 10.0 mi West 4.6 mph - N/A   Clear
10:55 PM 33.8 °F 29.6 °F 26.6 °F 75% 30.08 in 10.0 mi West 4.6 mph - N/A   Clear
11:15 PM 33.8 °F 29.6 °F 26.6 °F 75% 30.08 in 10.0 mi West 4.6 mph - N/A   Clear
11:35 PM 33.8 °F 28.6 °F 24.8 °F 70% 30.08 in 10.0 mi West 5.8 mph - N/A   Clear
11:55 PM 33.8 °F 27.7 °F 24.8 °F 70% 30.08 in 10.0 mi West 6.9 mph - N/A   Clear